Flag for Canada Weather past 2 weeks in Medicine Hat, Alberta, Canada

Now
70 °F

Scattered showers. Mostly cloudy.


Feels Like: 70 °F
Forecast: 64 / 84 °F
Wind: 16 mph from Southwest

Location: Medicine Hat

Current Time: Aug 4, 2015 at 8:58:43 AM

Latest Report: Aug 4, 2015 at 8:00 AM


Visibility: 15 mi

Pressure: 29.73 "Hg (27.53 "Hg at 661m altitude)

Humidity: 57%

Dew point: 54 °F

Location of Medicine HatLocation

Historic Weather in Medicine Hat — Graph

°F

Medicine Hat temperature yesterday

Maximum temperature yesterday: 95 °F (at 3:00 PM)
Minimum temperature yesterday: 59 °F (at 6:00 AM)
Average temperature yesterday: 78 °F

Past Weeks' High & Low Weather Summary

 TemperatureHumidityPressure
High95 °F (Aug 3, 3:00 PM)94% (Jul 23, 4:00 AM)30.22 "Hg (Jul 23, 4:00 AM)
Low46 °F (Jul 24, 6:00 AM)14% (Jul 31, 6:00 PM)29.58 "Hg (Jul 21, 5:00 PM)
Average70 °F51%29.88 "Hg
* Reported Jul 20 7:00 AM — Aug 4 7:00 AM, Medicine Hat, Weather by CustomWeather, © 2015

Note: Actual official high and low records may vary slightly from our data, if they occured in-between our weather recording intervals... More about our weather records

Advertising

Medicine Hat weather history for previous 24 hours

 ConditionsComfort  
Time TempWeatherWind HumidityBarometerVisibility
7:00 AM
Tue, Aug 4
73 °FSprinkles. More clouds than sun.20 mph44%29.70 "Hg30 mi
6:00 AM75 °FOvercast.13 mph36%29.66 "Hg9 mi
5:00 AM77 °FPartly cloudy.18 mph34%29.64 "Hg9 mi
4:00 AM77 °FClear.18 mph34%29.64 "Hg9 mi
3:00 AM77 °FPassing clouds.21 mph34%29.64 "Hg9 mi
2:00 AM79 °FPassing clouds.22 mph34%29.66 "Hg9 mi
1:00 AM81 °FPassing clouds.23 mph30%29.67 "Hg9 mi
12:00 AM81 °FPassing clouds.20 mph32%29.67 "Hg9 mi
11:00 PM
Mon, Aug 3
79 °FClear.10 mph34%29.71 "Hg9 mi
10:00 PM79 °FSunny.13 mph37%29.71 "Hg9 mi
9:00 PM82 °FPartly sunny.16 mph32%29.70 "Hg30 mi
8:00 PM88 °FPartly sunny.15 mph27%29.71 "Hg30 mi
7:00 PM90 °FHigh level clouds.17 mph24%29.71 "Hg30 mi
6:00 PM93 °FHigh level clouds.14 mph20%29.72 "Hg30 mi
5:00 PM95 °FHigh level clouds.15 mph18%29.73 "Hg30 mi
4:00 PM93 °FHigh level clouds.12 mph20%29.75 "Hg30 mi
3:00 PM95 °FHigh level clouds.2 mph16%29.76 "Hg30 mi
2:00 PM91 °FHigh level clouds.12 mph20%29.79 "Hg30 mi
1:00 PM91 °FHigh level clouds.12 mph21%29.80 "Hg30 mi
12:00 PM86 °FHigh level clouds.9 mph29%29.83 "Hg30 mi
11:00 AM79 °FHigh level clouds.3 mph37%29.86 "Hg30 mi
10:00 AM79 °FSunny.3 mph37%29.86 "Hg9 mi
9:00 AM72 °FHigh level clouds.8 mph50%29.87 "Hg30 mi
8:00 AM64 °FHigh level clouds.6 mph68%29.87 "Hg30 mi
Weather by CustomWeather, © 2015

See weather overviewHow to use our weather pages